Stations météo

Publicité
Elphin, Grande-Bretagne (99153): Température de l'air & dewpoint: 13.12.2018 01:00:00 - 19.12.2018 01:00:00 (GMT)Elphin, Grande-Bretagne (99153): Quantités de précipitations: 13.12.2018 01:00:00 - 19.12.2018 01:00:00 (GMT)
Date & Time tt [°C] td [°C] rr [mm]
19.12.2018 01:00:00 3,0 1,6 0,0
19.12.2018 00:00:00 4,2 2,6 0,0
18.12.2018 23:00:00 4,6 3,0 0,0
18.12.2018 22:00:00 5,1 3,0 0,0
18.12.2018 21:00:00 5,7 3,6 0,0
18.12.2018 20:00:00 5,3 3,4 0,0
18.12.2018 19:00:00 5,8 4,1 0,0
18.12.2018 18:00:00 6,3 4,3 0,0
18.12.2018 17:00:00 6,9 4,2 0,0
18.12.2018 16:00:00 7,6 4,8 0,0
18.12.2018 15:00:00 7,9 4,7 0,0
18.12.2018 14:00:00 8,1 5,4 0,0
18.12.2018 13:00:00 8,2 5,7 0,0
18.12.2018 12:00:00 9,0 5,2 0,6
18.12.2018 11:00:00 8,6 5,8 0,8
18.12.2018 10:00:00 10,3 5,8 0,0
18.12.2018 09:00:00 10,6 5,8 0,0
18.12.2018 08:00:00 10,2 6,0 0,0
18.12.2018 07:00:00 9,7 6,2 0,0
18.12.2018 06:00:00 9,6 6,3 0,0
18.12.2018 05:00:00 9,6 6,2 0,0
18.12.2018 04:00:00 9,7 6,3 0,0
18.12.2018 03:00:00 8,5 5,7 0,0
18.12.2018 02:00:00 7,9 5,3 0,0
18.12.2018 01:00:00 7,7 5,3 0,0
18.12.2018 00:00:00 7,4 4,7 0,0
17.12.2018 23:00:00 7,9 4,6 0,0
17.12.2018 22:00:00 7,7 4,5 0,0
17.12.2018 21:00:00 6,9 4,1 0,0
17.12.2018 20:00:00 7,3 3,9 0,0
17.12.2018 19:00:00 5,5 2,8 0,0
17.12.2018 18:00:00 6,0 2,3 0,0
17.12.2018 17:00:00 5,6 2,1 0,0
17.12.2018 16:00:00 5,3 1,7 0,0
17.12.2018 15:00:00 5,0 1,7 0,0
17.12.2018 14:00:00 4,2 1,8 0,0
17.12.2018 13:00:00 3,8 2,0 0,0
17.12.2018 12:00:00 3,0 1,4 0,0
17.12.2018 11:00:00 2,7 1,3 0,0
17.12.2018 10:00:00 2,2 0,7 0,0
17.12.2018 09:00:00 3,2 1,3 0,0
17.12.2018 08:00:00 4,0 1,9 0,0
17.12.2018 07:00:00 2,0 0,9 0,0
17.12.2018 06:00:00 2,8 1,2 0,0
17.12.2018 05:00:00 3,5 1,5 0,0
17.12.2018 04:00:00 2,9 0,8 0,0
17.12.2018 03:00:00 2,4 0,5 0,0
17.12.2018 02:00:00 3,8 1,2 0,0
17.12.2018 01:00:00 2,9 1,0 0,0
17.12.2018 00:00:00 2,7 0,9 0,0
16.12.2018 23:00:00 2,8 1,0 0,0
16.12.2018 22:00:00 2,4 0,6 0,0
16.12.2018 21:00:00 2,6 0,8 0,0
16.12.2018 20:00:00 2,3 0,8 0,0
16.12.2018 19:00:00 2,6 0,7 0,0
16.12.2018 18:00:00 1,6 0,8 0,0
16.12.2018 17:00:00 2,5 1,6 0,0
16.12.2018 16:00:00 3,1 2,1 0,2
16.12.2018 15:00:00 3,8 2,9 0,0
16.12.2018 14:00:00 4,0 2,0 0,0
16.12.2018 13:00:00 5,2 2,9 0,0
16.12.2018 12:00:00 5,8 3,8 0,0
16.12.2018 11:00:00 5,0 3,0 0,2
16.12.2018 10:00:00 5,0 2,9 1,0
16.12.2018 09:00:00 4,6 2,9 1,4
16.12.2018 08:00:00 3,2 2,6 1,6
16.12.2018 07:00:00 3,2 3,0 1,0
16.12.2018 06:00:00 2,5 1,3 0,0
16.12.2018 05:00:00 2,7 1,2 0,0
16.12.2018 04:00:00 3,0 1,4 0,0
16.12.2018 03:00:00 2,6 1,1 0,0
16.12.2018 02:00:00 2,7 1,5 0,0
16.12.2018 01:00:00 1,9 1,4 0,6
16.12.2018 00:00:00 1,4 1,0 1,4
15.12.2018 23:00:00 1,8 1,4 0,8
15.12.2018 22:00:00 1,9 1,5 1,6
15.12.2018 21:00:00 2,8 1,9 0,2
15.12.2018 20:00:00 3,2 1,5 0,2
15.12.2018 19:00:00 2,9 1,5 0,2
15.12.2018 18:00:00 2,7 1,1 0,0
15.12.2018 17:00:00 2,3 0,6 0,2
15.12.2018 16:00:00 3,1 -0,5 0,0
15.12.2018 15:00:00 2,7 -0,8 0,0
15.12.2018 14:00:00 2,9 -3,1 0,0
15.12.2018 13:00:00 3,0 -3,5 0,0
15.12.2018 12:00:00 2,9 -4,1 0,0
15.12.2018 11:00:00 3,5 -4,3 0,0
15.12.2018 10:00:00 3,2 -3,1 0,0
15.12.2018 09:00:00 2,7 -3,2 0,0
15.12.2018 08:00:00 2,7 -3,2 0,0
15.12.2018 07:00:00 3,6 -2,1 0,0
15.12.2018 06:00:00 3,6 -2,3 0,0
15.12.2018 05:00:00 4,1 -2,3 0,0
15.12.2018 04:00:00 3,6 -2,8 0,0
15.12.2018 03:00:00 3,2 -2,7 0,0
15.12.2018 02:00:00 2,8 -2,8 0,0
15.12.2018 01:00:00 3,3 -2,9 0,0
15.12.2018 00:00:00 3,1 -4,0 0,0
14.12.2018 23:00:00 2,8 -4,6 0,0
14.12.2018 22:00:00 2,9 -5,0 0,0
14.12.2018 21:00:00 3,2 -5,6 0,0
14.12.2018 20:00:00 3,3 -5,9 0,0
14.12.2018 19:00:00 3,1 -5,7 0,0
14.12.2018 18:00:00 3,1 -5,6 0,0
14.12.2018 17:00:00 2,3 -5,3 0,0
14.12.2018 16:00:00 2,9 -5,3 0,0
14.12.2018 15:00:00 2,8 -5,2 0,0
14.12.2018 14:00:00 3,1 -5,1 0,0
14.12.2018 13:00:00 3,2 -4,8 0,0
14.12.2018 12:00:00 3,0 -5,1 0,0
14.12.2018 11:00:00 2,0 -4,7 0,0
14.12.2018 10:00:00 1,2 -4,5 0,0
14.12.2018 09:00:00 1,3 -4,2 0,0
14.12.2018 08:00:00 1,5 -4,2 0,0
14.12.2018 07:00:00 1,9 -5,0 0,0
14.12.2018 06:00:00 2,0 -4,5 0,0
14.12.2018 05:00:00 2,2 -3,8 0,0
14.12.2018 04:00:00 2,1 -3,4 0,0
14.12.2018 03:00:00 2,8 -3,3 0,0
14.12.2018 02:00:00 2,7 -3,2 0,0
14.12.2018 01:00:00 2,9 -3,3 0,0
14.12.2018 00:00:00 3,4 -3,7 0,0
13.12.2018 23:00:00 3,4 -2,9 0,0
13.12.2018 22:00:00 3,5 -3,6 0,0
13.12.2018 21:00:00 3,9 -3,8 0,0
13.12.2018 20:00:00 4,0 -3,8 0,0
13.12.2018 19:00:00 3,6 -3,3 0,0
13.12.2018 18:00:00 3,1 -2,8 0,0
13.12.2018 17:00:00 3,3 -2,6 0,0
13.12.2018 16:00:00 3,2 -2,5 0,0
13.12.2018 15:00:00 3,2 -2,7 0,0
13.12.2018 14:00:00 4,1 -2,6 0,0
13.12.2018 13:00:00 4,5 -2,6 0,0
13.12.2018 12:00:00 4,3 -2,5 0,0
13.12.2018 11:00:00 4,1 -2,7 0,0
13.12.2018 10:00:00 4,2 -3,0 0,0
13.12.2018 09:00:00 4,2 -2,3 0,0
13.12.2018 08:00:00 4,0 -3,1 0,0
13.12.2018 07:00:00 3,5 -2,6 0,0
13.12.2018 06:00:00 2,9 -2,7 0,0
13.12.2018 05:00:00 3,6 -2,8 0,0
13.12.2018 04:00:00 3,4 -3,4 0,0
13.12.2018 03:00:00 3,8 -3,8 0,0
13.12.2018 02:00:00 3,8 -3,6 0,0
13.12.2018 01:00:00 4,2 -2,0 0,0

tt = Température de l'air
td = dewpoint
rr = Quantités de précipitations

stations d'obs. à proximité